Regional Weather Roundup
Issued by NWS

Home | Current Version | Previous Version | Text Only | Print | Product List | Glossary On
Versions: 1 2 3 4 5 6 7 8 9 10 11 12 13 14 15 16 17 18 19 20 21 22 23 24 25 26 27 28 29 30 31 32 33 34 35 36 37 38 39 40 41 42 43 44 45 46 47 48 49 50
229
ASUS44 KFWD 242015
RWRTX
NORTH TEXAS HOURLY WEATHER ROUNDUP
NATIONAL WEATHER SERVICE FORT WORTH TX
300 PM CDT SUN JUL 24 2016

NOTE: "FAIR" INDICATES FEW OR NO CLOUDS BELOW 12,000 FEET WITH NO
SIGNIFICANT WEATHER AND/OR OBSTRUCTIONS TO VISIBILITY.

TXZ118-119-242100-
DALLAS/FORT WORTH METROPLEX

CITY           SKY/WX    TMP DP  RH WIND       PRES   REMARKS
DFW AIRPORT    MOSUNNY   97  69  40 SE8       29.92F HX 103
DALLAS LOVE    MOSUNNY   98  71  41 SE10      29.92F HX 106
FTW MEACHAM    MOSUNNY   99  69  37 SE6       29.92F HX 105
DAL-EXECUTIVE  SUNNY     98  69  38 MISG      29.92F HX 104
FTW-ALLIANCE   MOSUNNY   99  67  35 VRB3      29.92F HX 103
FTW-NAS-JRB    MOSUNNY   99  65  32 VRB6      29.93F HX 102
FTW-SPINKS     MOSUNNY   99  70  39 CALM      29.95F HX 105
ARLINGTON      MOSUNNY   97  70  41 SE6G16    29.93F HX 103
ADDISON        MOSUNNY   99  72  41 S5        29.94F HX 107
MESQUITE       SUNNY     97  70  41 SE5       29.94F HX 103
LANCASTER      SUNNY    100  69  37 CALM      29.94F HX 106
$$

TXZ091>094-102>105-117-120-121-131>134-242100-
NORTH CENTRAL TEXAS

CITY           SKY/WX    TMP DP  RH WIND       PRES   REMARKS
SHRMAN/DENISON SUNNY     99  70  39 S8        29.94F HX 106
GAINESVILLE    SUNNY     96  71  44 E10G18    29.95F HX 103
BOWIE          SUNNY     97  67  37 S6        29.95F HX 100
BRIDGEPORT     SUNNY     97  69  40 S8        29.95F HX 102
DECATUR        SUNNY     97  65  34 S7        29.95F HX  99
DENTON         SUNNY     97  68  38 SE7       29.93F HX 102
MCKINNEY       SUNNY     97  71  42 SE9       29.93F HX 104
GREENVILLE     SUNNY     99  64  32 S10       29.93F HX 101
ROCKWALL       HAZE      96  72  45 CALM      29.93F VSB 3/4 HX 105
TERRELL        MOSUNNY   97  69  40 CALM      29.93F HX 103
WAXAHACHIE     MOSUNNY   97  71  43 S9        29.95F HX 105
CLEBURNE       SUNNY     97  68  38 E10       29.95F HX 101
GRANBURY       SUNNY    100  64  30 E8        29.93F HX 102
$$

TXZ083>090-098>101-113>116-127>130-139>142-154-155-242100-
WESTERN NORTH TEXAS

CITY           SKY/WX    TMP DP  RH WIND       PRES   REMARKS
WICHITA FALLS  SUNNY     99  68  36 SE9       29.92F HX 104
WF-KICKAPOO    SUNNY    100  63  29 E10G20    29.93F HX 102
VERNON         SUNNY    100  53  20 SE5       29.93F HX  98
ABILENE        MOSUNNY   98  63  31 SE15      29.96F HX 100
ABILENE-DYESS  MOSUNNY   98  66  34 SE10      29.94F HX 101
CISCO          SUNNY     97  66  36 S8G21     29.98F HX 100
BRECKENRIDGE   MOSUNNY  100  61  27 S6        29.93F HAZE    HX 100
GRAHAM         SUNNY    100  65  31 SE5       29.92F HX 104
MINERAL WELLS  SUNNY     98  67  36 VRB7      29.92F HX 102
STEPHENVILLE   SUNNY     97  62  31 SE6       29.98F HX  98
COMANCHE       SUNNY     98  66  34 SE7       29.96F HX 101
BROWNWOOD      LGT RAIN  99  63  30 NE6       29.94F HX 100
COLEMAN        MOSUNNY   98  61  28 S3        29.96F HX  99
$$

TXZ143>147-156>162-174-175-242100-
CENTRAL TEXAS

CITY           SKY/WX    TMP DP  RH WIND       PRES   REMARKS
WACO           SUNNY     98  65  33 VRB5      29.92F HX 101
WACO-TSTC      SUNNY     99  64  32 CALM      29.92F HX 101
WACO-MCGREGOR  SUNNY     98  68  37 CALM      29.93F HX 103
HILLSBORO      MOSUNNY   97  69  40 S6        29.93F HX 102
CORSICANA      SUNNY     96  71  44 E7        29.94F HX 103
MEXIA          SUNNY     96  68  40 S8        29.93F HX 100
HEARNE         SUNNY     96  70  43 CALM      29.93F HX 102
CAMERON        PTSUNNY   98  70  40 S6        29.92F HX 104
TEMPLE         SUNNY     98  69  38 E8        29.93F HX 104
KILLEEN        SUNNY     96  65  36 SE8       29.92F HX  99
KILLEEN-SKYLRK SUNNY     99  70  38 VRB7      29.93F HX 106
FORT HOOD      SUNNY     96  66  37 SE5       29.91F HX  99
GATESVILLE     SUNNY     99  64  32 E7        29.95F HX 101
HAMILTON       SUNNY     98  63  32 S5        29.97F HX  99
LAMPASAS       SUNNY     98  67  35 E7        29.94F HX 102
$$

TXZ095>097-106>112-122>126-135>138-148>153-164>167-242100-
EAST TEXAS

CITY           SKY/WX    TMP DP  RH WIND       PRES   REMARKS
PARIS          PTSUNNY   99  66  34 S5        29.93F HX 102
SULPHUR SPRNGS CLOUDY    96  69  40 SE6       29.95F HX 101
MOUNT PLEASANT PTSUNNY   97  69  40 N9        29.94F HX 102
GILMER         LGT RAIN  93  74  53 E5        29.94F HX 103
MINEOLA        CLOUDY    99  72  41 S3        29.94  HX 107
TYLER          MOSUNNY   98  70  40 MISG      29.93F HX 105
LONGVIEW       MOSUNNY   96  74  48 SE5       29.92F HX 107
MARSHALL       PTSUNNY   92  74  53 NW3       29.95F HX 102
ATHENS         MOSUNNY   95  70  43 S6        29.93F HX 101
PALESTINE      SUNNY     94  71  46 SW5       29.95F HX 101
JACKSONVILLE   MOSUNNY   96  69  41 SE5       29.97F HX 101
HENDERSON      MOSUNNY   95  71  44 NE5       29.94F HX 102
CENTER         PTCLDY    96  69  42 CALM      29.93F HX 102
NACOGDOCHES    PTSUNNY  N/A N/A N/A S8        29.91F
LUFKIN         SUNNY     96  71  44 CALM      29.92F HX 103
$$

SUPPLEMENTAL OBSERVATIONS (CENTRAL)

CITY           SKY/WX    TMP DP  RH WIND       PRES   REMARKS
DENISON DAM      N/A     97  70  41 S2          N/A  HX 103
CADDO GRASSLND   N/A    100  68  34 S6          N/A  HX 106
PAT MAYSE LAKE   N/A     97  70  41 SW5         N/A  HX 103
ATHENS           N/A     99  72  41 S3          N/A  HX 107
MCGREGOR         N/A     99  66  34 SE7         N/A  HX 102
$$

SUPPLEMENTAL OBSERVATIONS (WEST)

CITY           SKY/WX    TMP DP  RH WIND       PRES   REMARKS
MILLERS CREEK    N/A    102  63  27 S9          N/A  HX 104
LBJ GRASSLAND    N/A     99  70  39 S6          N/A  HX 105
HAMBY            N/A    100  63  28 SE6G16      N/A  HX 102
IVIE RESERVOIR   N/A    100  63  28 CALM        N/A  HX 102
COLORADO BEND    N/A     99  64  32 S8G17       N/A  HX 101
$$

SUPPLEMENTAL OBSERVATIONS (EAST)

CITY           SKY/WX    TMP DP  RH WIND       PRES   REMARKS
CLARKSVILLE      N/A    100  72  39 N3          N/A  HX 109
TEXARKANA        N/A     81  66  61 NW6G26      N/A
LINDEN           N/A     99  75  47 NE1         N/A  HX 111
CADDO LAKE       N/A     99  75  47 W3          N/A  HX 111
GILMER           N/A     90  75  62 E5          N/A  HX 100
HENDERSON        N/A     99  72  41 E3          N/A  HX 107
S SABINE NF      N/A     95  72  46 NE6         N/A  HX 103
$$

SUPPLEMENTAL OBSERVATIONS ARE A COLLECTION OF AUTOMATED INSTRUMENTS
THAT ARE MAINTAINED BY A VARIETY OF FEDERAL AND STATE AGENCIES.
CERTAIN ELEMENTS...SUCH AS HUMIDITY VALUES AND SUSTAINED WIND
SPEEDS...MAY BE APPROXIMATED.





USA.gov is the U.S. government's official web portal to all federal, state and local government web resources and services.